Content
SEND FEEDBACK

Daily
Averages
Monthly
Summary
France

LE HAVRE, FRANCE


Home > Europe > France
Elevation: 338 feet     Latitude: 49 31N     Longitude: 000 04E

WEATHER
 
SELECT A DAY
Number of Records: 175,549;   Date Range: 3/4/97 - 7/9/14
 
SHARE

PRINT THIS DATA

[ ← Previous Day ]
WEATHER ALMANAC - MARCH 20, 2013
[ Next Day → ]
[ °C ]   °F
Weather ElementAverageHighLow
Temperature41 °F44.6 °F (11:30 am)35.6 °F (11:00 pm)
Dewpoint36.7 °F39.2 °F (12:30 am)32 °F (11:30 pm)
Humidity85 %93 % (12:30 am)76 % (4:00 pm)
Barometer29.68 in29.98 in (11:30 pm)29.42 in (12:30 am)
Wind Speed9.2 mph16.1 mph (3:30 am)
Weather ElementAverage
Visibility6 mi
Wind DirectionWSW (260 °)

Weather ElementTotal
Precipitation---
Heating Degree Days24.9 (Base 65)
Averaged from 47 records on March 20, 2013
WEATHER CONDITIONS BREAKOUT
WIND DIRECTION BREAKOUT
WEATHER BY HOUR - MARCH 20, 2013
[ °C ]   °F
Local TimeTemperatureDewpointHumidityBarometerVisibilityWind DirectionWind SpeedGust SpeedPrecipitationEventsConditions
12:30 AM41.0 °F39.2 °F93 %29.42 in6.2 miSSW (200°)9.2 mphRainLight Rain
1:00 AM41.0 °F39.2 °F93 %29.42 in6.2 miSSW (200°)9.2 mphRainLight Rain
1:30 AM41.0 °F39.2 °F93 %29.44 in6.2 miSW (220°)10.4 mphRainLight Rain
2:00 AM41.0 °F39.2 °F93 %29.44 in6.2 miSW (220°)11.5 mphRainLight Rain
2:30 AM41.0 °F39.2 °F93 %29.44 in6.2 miSW (220°)12.7 mphRainLight Rain
3:00 AM41.0 °F39.2 °F93 %29.44 in6.2 miSW (230°)12.7 mphRainLight Rain
3:30 AM41.0 °F39.2 °F93 %29.44 in6.2 miSW (230°)16.1 mphOvercast
4:00 AM41.0 °F39.2 °F93 %29.44 in6.2 miWSW (250°)16.1 mphOvercast
4:30 AM41.0 °F37.4 °F87 %29.44 in6.2 miWest (270°)15.0 mphOvercast
5:00 AM39.2 °F37.4 °F93 %29.47 in6.2 miWNW (290°)13.8 mphOvercast
5:30 AM39.2 °F35.6 °F87 %29.47 in6.2 miWNW (290°)13.8 mphOvercast
6:00 AM41.0 °F37.4 °F87 %29.47 in6.2 miWest (280°)13.8 mphOvercast
6:30 AM41.0 °F37.4 °F87 %29.50 in6.2 miWNW (300°)13.8 mphOvercast
7:00 AM41.0 °F37.4 °F87 %29.50 in6.2 miNW (320°)12.7 mphOvercast
7:30 AM39.2 °F37.4 °F93 %29.53 in6.2 miNNW (330°)10.4 mphMostly Cloudy
8:00 AM39.2 °F37.4 °F93 %29.53 in6.2 miNNW (330°)12.7 mphOvercast
8:30 AM41.0 °F37.4 °F87 %29.56 in6.2 miNNW (330°)10.4 mphMostly Cloudy
9:00 AM41.0 °F37.4 °F87 %29.59 in6.2 miNNW (340°)11.5 mphMostly Cloudy
9:30 AM41.0 °F39.2 °F93 %29.59 in6.2 miNorth (350°)9.2 mphMostly Cloudy
10:00 AM42.8 °F37.4 °F81 %29.62 in6.2 miNorth (350°)13.8 mphOvercast
10:30 AM42.8 °F37.4 °F81 %29.62 in6.2 miNorth (350°)12.7 mphOvercast
11:00 AM42.8 °F37.4 °F81 %29.65 in6.2 miNorth (350°)12.7 mphOvercast
11:30 AM44.6 °F39.2 °F81 %29.68 in6.2 miNNW (340°)11.5 mphMostly Cloudy
12:00 PM44.6 °F39.2 °F81 %29.68 in6.2 miNNW (340°)12.7 mphMostly Cloudy
12:30 PM44.6 °F39.2 °F81 %29.71 in6.2 miNorth (350°)11.5 mphOvercast
1:00 PM42.8 °F37.4 °F81 %29.71 in6.2 miNNW (330°)9.2 mphOvercast
1:30 PM44.6 °F39.2 °F81 %29.74 in6.2 miNNW (330°)9.2 mphMostly Cloudy
2:00 PM42.8 °F37.4 °F81 %29.74 in6.2 miNNW (340°)8.1 mphScattered Clouds
2:30 PM42.8 °F37.4 °F81 %29.77 in6.2 miNW (320°)10.4 mphMostly Cloudy
3:00 PM42.8 °F37.4 °F81 %29.77 in6.2 miNW (320°)10.4 mphOvercast
3:30 PM42.8 °F37.4 °F81 %29.80 in6.2 miNNW (330°)9.2 mphScattered Clouds
4:00 PM42.8 °F35.6 °F76 %29.80 in6.2 miNNW (330°)8.1 mphMostly Cloudy
4:30 PM42.8 °F35.6 °F76 %29.83 in6.2 miNW (320°)8.1 mphMostly Cloudy
5:00 PM41.0 °F33.8 °F76 %29.83 in6.2 miNW (320°)9.2 mphMostly Cloudy
5:30 PM41.0 °F35.6 °F81 %29.83 in6.2 miNW (310°)6.9 mphMostly Cloudy
6:00 PM41.0 °F33.8 °F76 %29.86 in5.6 miNNW (330°)5.8 mphPartly Cloudy
6:30 PM41.0 °F33.8 °F76 %29.89 in6.2 miNW (320°)6.9 mphMostly Cloudy
7:00 PM41.0 °F33.8 °F76 %29.89 in6.2 miWNW (290°)5.8 mphMostly Cloudy
7:30 PM39.2 °F33.8 °F81 %29.92 in6.2 miWNW (300°)3.5 mphOvercast
8:00 PM39.2 °F33.8 °F81 %29.92 in6.2 miWest (260°)4.6 mphOvercast
8:30 PM39.2 °F33.8 °F81 %29.92 in6.2 miVariable1.2 mph
9:00 PM39.2 °F35.6 °F87 %29.95 in6.2 miCalm
9:30 PM39.2 °F33.8 °F81 %29.95 in6.2 miCalm
10:00 PM39.2 °F33.8 °F81 %29.95 in5.6 miCalm
10:30 PM37.4 °F33.8 °F87 %29.95 in3.1 miEast (90°)3.5 mphMist
11:00 PM35.6 °F33.8 °F93 %29.95 in3.1 miVariable2.3 mphMist
11:30 PM35.6 °F32.0 °F87 %29.98 in2.5 miEast (100°)1.2 mphMist
Hourly data recorded from LFOH, located miles away from Le Havre, France







STORIES FROM OUR PARTNERS